Flag Weather past 2 weeks in Anchorage, Alaska, U.S.A.

Now
28 °F

Sunny.


Feels Like: 23 °F
Forecast: 22 / 32 °F
Wind: 5 mph from Northwest

Location: Lake Hood Seaplane

Current Time: Oct 30, 2014 at 3:04:58 PM

Latest Report: Oct 30, 2014 at 1:53 PM


Visibility: 10 mi

Pressure: 29.51 "Hg

Humidity: 64%

Dew point: 17 °F

Location of AnchorageLocation

Historic Weather in Anchorage — Graph

°F

Anchorage temperature yesterday

Maximum temperature yesterday: 29 °F (at 2:53 PM)
Minimum temperature yesterday: 20 °F (at 12:53 AM)
Average temperature yesterday: 25 °F

Past Weeks' High & Low Weather Summary

 TemperatureHumidityPressure
High48 °F (Oct 17, 2:53 PM)93% (Oct 20, 12:00 PM)29.99 "Hg (Oct 20, 12:00 PM)
Low20 °F (Oct 29, 12:53 AM)47% (Oct 28, 4:53 PM)28.96 "Hg (Oct 20, 6:53 AM)
Average33 °F75%29.54 "Hg
* Reported Oct 15 1:53 PM — Oct 30 1:53 PM, Anchorage, Weather by CustomWeather, © 2014

Note: Actual official high and low records may vary slightly from our data, if they occured in-between our weather recording intervals... More about our weather records

Advertising

Anchorage weather history for previous 24 hours

 ConditionsComfort  
Time TempWeatherWind HumidityBarometerVisibility
1:53 PM
Oct 30
28 °FSunny.5 mph64%29.51 "Hg10 mi
12:53 PM27 °FPartly sunny.7 mph66%29.52 "Hg10 mi
11:53 AM26 °FOvercast.No wind66%29.55 "Hg10 mi
10:53 AM26 °FOvercast.3 mph69%29.57 "Hg10 mi
9:53 AM25 °FMostly cloudy.3 mph72%29.58 "Hg10 mi
8:53 AM26 °FOvercast.No wind71%29.60 "Hg10 mi
7:53 AM25 °FMostly cloudy.No wind78%29.62 "Hg10 mi
6:53 AM25 °FMostly cloudy.No wind78%29.63 "Hg10 mi
5:53 AM25 °FClear.No wind75%29.64 "Hg10 mi
4:53 AM25 °FClear.No wind72%29.66 "Hg10 mi
3:53 AM27 °FOvercast.No wind75%29.67 "Hg10 mi
2:53 AM27 °FPassing clouds.No wind72%29.69 "Hg10 mi
1:53 AM28 °FOvercast.No wind66%29.69 "Hg10 mi
12:53 AM28 °FOvercast.No wind66%29.70 "Hg10 mi
11:53 PM
Oct 29
27 °FOvercast.No wind66%29.71 "Hg10 mi
10:53 PM27 °FOvercast.No wind66%29.70 "Hg10 mi
9:53 PM27 °FOvercast.No wind66%29.70 "Hg10 mi
8:53 PM26 °FPassing clouds.3 mph66%29.70 "Hg10 mi
7:53 PM27 °FClear.No wind66%29.70 "Hg10 mi
6:53 PM27 °FSunny.No wind66%29.69 "Hg10 mi
5:53 PM28 °FSunny.6 mph61%29.68 "Hg10 mi
4:53 PM28 °FSunny.6 mph56%29.68 "Hg10 mi
3:53 PM28 °FSunny.8 mph61%29.68 "Hg10 mi
Weather by CustomWeather, © 2014

See weather overviewHow to use our weather pages